Location: Unspecified
(0.0000°N, 0.0000°E)
Time: 10:35:04
(UTC+00:00)

Vanguard 1 - Pass Details

Date: 11 December 2017
Orbit: 650 x 3833 km, 34.3° (Epoch: 22 June)

Event Time Altitude Azimuth Distance (km) Brightness Sun altitude
Rises 07:39:48 0° 244° (WSW) 7,524 14.2 24.4°
Reaches altitude 10° 07:44:44 10° 248° (WSW) 6,717 14.0 25.5°
Maximum altitude 08:07:32 57° 321° (NW) 4,080 13.3 30.6°
Drops below altitude 10° 08:26:02 10° 38° (NE) 5,549 14.1 34.7°
Sets 08:29:43 0° 43° (NE) 6,207 14.3 35.5°
